QPF
0.00 0.00 0.00 0.00 0.00 0.00 0.00 0.00 0.00 0.00 0.00 0.00 0.00 0.00 0.00 0.00 0.00 0.00 0.00 0.00 0.00 0.00 0.00 0.01 0.01 0.01 0.02 0.02 0.02 0.03 0.03 0.03 0.04 0.04 0.03 0.03 0.03 0.03
0.00 0.00 0.00 0.00 0.00 0.00 0.00 0.00 0.00 0.00 0.00 0.00 0.00 0.00 0.00 0.00 0.00 0.00 0.00 0.00 0.00 0.00 0.00 0.01 0.02 0.02 0.02 0.02 0.02 0.03 0.03 0.04 0.04 0.05 0.05 0.05 0.05 0.05
0.00 0.00 0.00 0.00 0.00 0.00 0.00 0.00 0.00 0.00 0.00 0.00 0.00 0.00 0.00 0.00 0.00 0.00 0.00 0.00 0.00 0.00 0.01 0.01 0.01 0.02 0.02 0.03 0.03 0.03 0.03 0.04 0.04 0.05 0.06 0.06 0.06 0.06
0.00 0.00 0.00 0.00 0.00 0.00 0.00 0.00 0.00 0.00 0.00 0.01 0.00 0.00 0.00 0.00 0.00 0.00 0.00 0.00 0.00 0.00 0.00 0.01 0.01 0.02 0.02 0.02 0.02 0.03 0.03 0.04 0.04 0.05 0.05 0.06 0.06 0.06
0.00 0.00 0.00 0.00 0.00 0.00 0.00 0.00 0.00 0.00 0.01 0.01 0.01 0.00 0.00 0.00 0.00 0.00 0.00 0.00 0.00 0.00 0.00 0.00 0.01 0.01 0.01 0.02 0.02 0.03 0.03 0.03 0.03 0.04 0.05 0.05 0.05 0.05
0.00 0.00 0.00 0.00 0.00 0.00 0.00 0.00 0.01 0.01 0.01 0.02 0.02 0.01 0.01 0.00 0.00 0.00 0.00 0.00 0.00 0.00 0.00 0.00 0.00 0.01 0.01 0.01 0.01 0.01 0.01 0.02 0.02 0.03 0.04 0.05 0.05 0.05
0.00 0.00 0.00 0.00 0.00 0.00 0.01 0.01 0.01 0.02 0.04 0.05 0.03 0.02 0.01 0.00 0.00 0.00 0.01 0.00 0.00 0.00 0.00 0.00 0.00 0.00 0.00 0.00 0.01 0.01 0.01 0.02 0.03 0.05 0.05 0.06 0.06 0.06
0.00 0.00 0.00 0.00 0.00 0.00 0.01 0.02 0.03 0.05 0.06 0.06 0.05 0.03 0.01 0.00 0.00 0.01 0.02 0.03 0.02 0.00 0.01 0.01 0.00 0.00 0.00 0.00 0.01 0.02 0.03 0.04 0.05 0.06 0.06 0.06 0.06 0.05
0.00 0.00 0.00 0.00 0.00 0.00 0.00 0.02 0.03 0.04 0.05 0.05 0.03 0.01 0.01 0.01 0.03 0.05 0.05 0.05 0.03 0.01 0.01 0.01 0.00 0.00 0.00 0.00 0.01 0.02 0.02 0.03 0.03 0.04 0.04 0.04 0.04 0.03
0.00 0.00 0.00 0.00 0.00 0.01 0.02 0.02 0.02 0.02 0.02 0.01 0.01 0.01 0.01 0.01 0.03 0.06 0.06 0.04 0.01 0.00 0.00 0.01 0.00 0.00 0.00 0.00 0.00 0.01 0.02 0.03 0.04 0.05 0.05 0.04 0.04 0.03
0.00 0.00 0.00 0.00 0.01 0.03 0.04 0.05 0.03 0.01 0.01 0.01 0.01 0.01 0.01 0.01 0.01 0.05 0.07 0.05 0.02 0.00 0.00 0.01 0.01 0.00 0.00 0.00 0.00 0.00 0.02 0.03 0.04 0.04 0.04 0.04 0.04 0.03
0.00 0.00 0.00 0.01 0.02 0.04 0.04 0.04 0.02 0.01 0.01 0.01 0.00 0.00 0.00 0.00 0.00 0.04 0.10 0.12 0.07 0.03 0.00 0.02 0.03 0.04 0.05 0.01 0.00 0.00 0.01 0.02 0.03 0.04 0.04 0.04 0.04 0.03
0.00 0.00 0.00 0.01 0.03 0.04 0.03 0.01 0.01 0.02 0.01 0.00 0.00 0.00 0.00 0.00 0.00 0.01 0.06 0.15 0.17 0.09 0.02 0.08 0.10 0.05 0.07 0.03 0.00 0.00 0.02 0.05 0.06 0.05 0.05 0.05 0.04 0.04
0.01 0.00 0.01 0.02 0.03 0.01 0.00 0.00 0.01 0.01 0.00 0.00 0.00 0.00 0.00 0.01 0.01 0.01 0.02 0.05 0.11 0.14 0.08 0.12 0.15 0.10 0.09 0.05 0.01 0.01 0.03 0.08 0.13 0.11 0.08 0.05 0.04 0.03
0.01 0.01 0.02 0.01 0.01 0.00 0.00 0.00 0.00 0.00 0.01 0.02 0.01 0.01 0.01 0.01 0.01 0.01 0.01 0.01 0.02 0.03 0.05 0.08 0.12 0.10 0.09 0.08 0.06 0.05 0.07 0.07 0.14 0.18 0.13 0.07 0.04 0.02
0.01 0.01 0.01 0.00 0.00 0.00 0.00 0.00 0.00 0.01 0.03 0.04 0.03 0.01 0.01 0.01 0.02 0.02 0.03 0.02 0.02 0.01 0.01 0.03 0.06 0.09 0.08 0.06 0.09 0.11 0.14 0.19 0.24 0.27 0.20 0.11 0.06 0.04
0.01 0.00 0.00 0.00 0.00 0.00 0.00 0.00 0.00 0.00 0.01 0.02 0.02 0.02 0.01 0.01 0.01 0.02 0.03 0.04 0.03 0.02 0.01 0.00 0.01 0.03 0.05 0.07 0.10 0.12 0.17 0.23 0.29 0.30 0.22 0.15 0.11 0.08
0.00 0.00 0.00 0.00 0.00 0.00 0.00 0.01 0.00 0.01 0.02 0.02 0.03 0.03 0.03 0.02 0.02 0.01 0.02 0.03 0.03 0.03 0.02 0.02 0.02 0.01 0.01 0.03 0.11 0.17 0.17 0.23 0.28 0.24 0.16 0.15 0.18 0.15
0.00 0.00 0.00 0.00 0.00 0.01 0.01 0.01 0.01 0.01 0.02 0.03 0.03 0.03 0.03 0.02 0.02 0.02 0.02 0.02 0.02 0.02 0.02 0.02 0.03 0.04 0.04 0.03 0.04 0.14 0.23 0.24 0.23 0.18 0.12 0.13 0.20 0.20
0.00 0.01 0.01 0.01 0.01 0.01 0.02 0.02 0.02 0.01 0.01 0.02 0.03 0.03 0.03 0.03 0.03 0.03 0.03 0.03 0.03 0.01 0.01 0.01 0.02 0.04 0.08 0.09 0.08 0.14 0.20 0.21 0.20 0.16 0.12 0.13 0.19 0.20
0.00 0.00 0.00 0.01 0.01 0.02 0.02 0.02 0.02 0.02 0.02 0.03 0.03 0.03 0.03 0.04 0.03 0.03 0.03 0.02 0.02 0.01 0.01 0.01 0.02 0.04 0.06 0.05 0.06 0.11 0.16 0.19 0.16 0.13 0.11 0.10 0.11 0.13
0.01 0.01 0.00 0.01 0.01 0.02 0.02 0.02 0.02 0.02 0.02 0.02 0.02 0.02 0.03 0.04 0.05 0.04 0.04 0.03 0.02 0.02 0.02 0.01 0.01 0.02 0.03 0.04 0.06 0.09 0.13 0.13 0.11 0.11 0.11 0.07 0.08 0.15
0.01 0.01 0.01 0.01 0.02 0.02 0.02 0.01 0.02 0.02 0.02 0.03 0.02 0.02 0.03 0.04 0.05 0.05 0.04 0.03 0.02 0.02 0.01 0.00 0.01 0.01 0.03 0.04 0.05 0.06 0.07 0.07 0.05 0.09 0.17 0.14 0.11 0.14
MSLP
1017.37 1017.24 1017.04 1016.72 1016.26 1015.62 1014.83 1013.92 1012.95 1011.98 1011.07 1010.27 1009.59 1009.03 1008.55 1008.13 1007.70 1007.24 1006.71 1006.11 1005.43 1004.71 1003.96 1003.22 1002.50 1001.81 1001.17 1000.56 999.99 999.45 998.94 998.47 998.03 997.65 997.33 997.07 996.85 996.67
1016.98 1016.83 1016.63 1016.31 1015.85 1015.22 1014.44 1013.55 1012.58 1011.60 1010.68 1009.83 1009.10 1008.47 1007.92 1007.41 1006.91 1006.39 1005.82 1005.19 1004.51 1003.80 1003.07 1002.35 1001.64 1000.96 1000.31 999.68 999.07 998.48 997.91 997.38 996.90 996.47 996.11 995.82 995.60 995.42
1016.53 1016.36 1016.13 1015.80 1015.33 1014.71 1013.94 1013.06 1012.11 1011.14 1010.20 1009.33 1008.54 1007.85 1007.22 1006.63 1006.05 1005.46 1004.83 1004.17 1003.48 1002.77 1002.05 1001.34 1000.64 999.97 999.30 998.65 998.01 997.38 996.77 996.20 995.67 995.22 994.83 994.52 994.28 994.10
1016.07 1015.86 1015.59 1015.23 1014.75 1014.12 1013.35 1012.48 1011.54 1010.58 1009.64 1008.75 1007.93 1007.17 1006.47 1005.81 1005.15 1004.49 1003.80 1003.10 1002.38 1001.65 1000.92 1000.20 999.50 998.82 998.14 997.46 996.80 996.14 995.51 994.92 994.38 993.92 993.53 993.21 992.97 992.77
1015.62 1015.35 1015.04 1014.64 1014.12 1013.47 1012.70 1011.83 1010.90 1009.95 1009.01 1008.11 1007.26 1006.47 1005.71 1004.98 1004.25 1003.52 1002.77 1002.02 1001.25 1000.48 999.73 998.99 998.26 997.55 996.84 996.14 995.45 994.79 994.15 993.57 993.04 992.59 992.22 991.92 991.67 991.47
1015.18 1014.86 1014.49 1014.03 1013.47 1012.79 1012.00 1011.13 1010.21 1009.27 1008.34 1007.44 1006.58 1005.76 1004.96 1004.18 1003.39 1002.60 1001.80 1000.98 1000.16 999.35 998.54 997.75 996.98 996.22 995.47 994.73 994.02 993.34 992.71 992.14 991.65 991.23 990.90 990.63 990.40 990.20
1014.75 1014.37 1013.93 1013.41 1012.80 1012.08 1011.27 1010.40 1009.48 1008.55 1007.64 1006.75 1005.90 1005.07 1004.25 1003.44 1002.61 1001.77 1000.92 1000.05 999.18 998.30 997.44 996.58 995.74 994.91 994.09 993.31 992.56 991.86 991.22 990.67 990.20 989.83 989.54 989.31 989.11 988.93
1014.30 1013.86 1013.35 1012.77 1012.10 1011.35 1010.52 1009.64 1008.74 1007.84 1006.95 1006.09 1005.25 1004.43 1003.61 1002.78 1001.93 1001.06 1000.17 999.25 998.33 997.39 996.46 995.52 994.60 993.68 992.79 991.93 991.12 990.37 989.71 989.15 988.70 988.36 988.10 987.91 987.76 987.62
1013.83 1013.32 1012.75 1012.11 1011.39 1010.60 1009.76 1008.89 1008.01 1007.14 1006.29 1005.46 1004.65 1003.84 1003.03 1002.21 1001.35 1000.46 999.54 998.59 997.62 996.63 995.62 994.62 993.60 992.60 991.61 990.65 989.75 988.93 988.21 987.61 987.14 986.79 986.55 986.39 986.28 986.19
1013.32 1012.74 1012.11 1011.42 1010.67 1009.87 1009.03 1008.17 1007.32 1006.48 1005.67 1004.88 1004.10 1003.32 1002.52 1001.69 1000.83 999.93 999.00 998.02 997.02 995.98 994.93 993.85 992.76 991.66 990.56 989.49 988.48 987.55 986.74 986.05 985.52 985.13 984.87 984.72 984.64 984.60
1012.79 1012.16 1011.48 1010.75 1009.98 1009.17 1008.34 1007.51 1006.69 1005.89 1005.12 1004.36 1003.60 1002.83 1002.04 1001.22 1000.35 999.44 998.49 997.50 996.47 995.41 994.32 993.19 992.02 990.84 989.64 988.45 987.31 986.25 985.31 984.50 983.86 983.39 983.07 982.90 982.84 982.85
1012.26 1011.59 1010.88 1010.13 1009.35 1008.55 1007.74 1006.94 1006.16 1005.39 1004.65 1003.91 1003.16 1002.39 1001.59 1000.75 999.87 998.94 997.97 996.97 995.93 994.85 993.73 992.57 991.36 990.10 988.81 987.52 986.25 985.05 983.95 983.00 982.22 981.63 981.23 981.01 980.95 980.99
1011.77 1011.07 1010.35 1009.60 1008.82 1008.04 1007.26 1006.49 1005.74 1005.00 1004.27 1003.54 1002.78 1002.00 1001.17 1000.29 999.38 998.42 997.43 996.41 995.36 994.27 993.15 991.97 990.72 989.42 988.07 986.68 985.30 983.96 982.71 981.60 980.67 979.95 979.44 979.16 979.06 979.13
1011.35 1010.65 1009.92 1009.18 1008.42 1007.66 1006.91 1006.17 1005.44 1004.72 1004.00 1003.25 1002.48 1001.65 1000.78 999.86 998.89 997.89 996.87 995.82 994.76 993.67 992.55 991.37 990.12 988.80 987.41 985.96 984.48 983.03 981.66 980.41 979.34 978.48 977.86 977.48 977.34 977.40
1011.03 1010.33 1009.62 1008.89 1008.16 1007.43 1006.70 1005.99 1005.28 1004.57 1003.84 1003.07 1002.26 1001.38 1000.45 999.47 998.45 997.39 996.33 995.26 994.18 993.09 991.97 990.81 989.57 988.26 986.85 985.38 983.86 982.34 980.88 979.52 978.33 977.36 976.63 976.16 975.96 975.99
1010.81 1010.13 1009.44 1008.74 1008.03 1007.33 1006.63 1005.93 1005.23 1004.52 1003.77 1002.98 1002.12 1001.20 1000.21 999.17 998.08 996.98 995.87 994.77 993.67 992.59 991.48 990.34 989.13 987.85 986.47 985.01 983.49 981.95 980.44 979.03 977.77 976.71 975.89 975.35 975.07 975.04
1010.69 1010.04 1009.38 1008.70 1008.01 1007.33 1006.65 1005.96 1005.27 1004.54 1003.78 1002.96 1002.07 1001.10 1000.06 998.96 997.83 996.68 995.53 994.41 993.31 992.22 991.14 990.03 988.87 987.63 986.31 984.90 983.43 981.92 980.43 979.02 977.73 976.63 975.76 975.15 974.80 974.70
1010.66 1010.04 1009.40 1008.74 1008.07 1007.39 1006.71 1006.03 1005.33 1004.59 1003.81 1002.96 1002.04 1001.04 999.97 998.84 997.68 996.50 995.34 994.21 993.11 992.04 990.99 989.92 988.82 987.66 986.43 985.11 983.72 982.30 980.89 979.52 978.27 977.18 976.29 975.64 975.23 975.05
1010.68 1010.09 1009.46 1008.81 1008.14 1007.46 1006.77 1006.07 1005.35 1004.59 1003.79 1002.93 1001.99 1000.97 999.89 998.76 997.59 996.42 995.26 994.15 993.07 992.04 991.03 990.03 989.01 987.94 986.81 985.62 984.36 983.07 981.77 980.51 979.34 978.30 977.44 976.77 976.31 976.06
1010.74 1010.16 1009.53 1008.87 1008.19 1007.48 1006.76 1006.03 1005.27 1004.49 1003.66 1002.77 1001.83 1000.81 999.74 998.63 997.49 996.35 995.24 994.16 993.14 992.16 991.23 990.31 989.39 988.43 987.44 986.39 985.29 984.15 983.01 981.90 980.85 979.90 979.09 978.45 977.97 977.67
1010.80 1010.21 1009.57 1008.88 1008.16 1007.41 1006.64 1005.85 1005.05 1004.22 1003.35 1002.45 1001.50 1000.49 999.45 998.38 997.30 996.23 995.19 994.19 993.25 992.36 991.52 990.70 989.90 989.08 988.23 987.35 986.42 985.47 984.50 983.56 982.66 981.83 981.11 980.52 980.05 979.72
1010.84 1010.22 1009.55 1008.81 1008.03 1007.21 1006.37 1005.51 1004.63 1003.75 1002.84 1001.91 1000.96 999.98 998.98 997.97 996.97 995.99 995.05 994.15 993.33 992.55 991.83 991.14 990.47 989.80 989.12 988.40 987.66 986.89 986.12 985.35 984.61 983.93 983.32 982.80 982.38 982.05
1010.82 1010.17 1009.43 1008.63 1007.77 1006.87 1005.94 1004.99 1004.04 1003.08 1002.13 1001.17 1000.22 999.26 998.32 997.39 996.48 995.61 994.79 994.03 993.34 992.70 992.12 991.57 991.05 990.54 990.01 989.47 988.91 988.32 987.73 987.13 986.56 986.02 985.53 985.11 984.76 984.47
Thickness
5475 5468 5460 5453 5445 5436 5427 5417 5411 5419 5436 5430 5412 5398 5379 5363 5351 5340 5334 5329 5328 5327 5328 5329 5330 5332 5335 5338 5340 5344 5347 5351 5356 5363 5370 5379 5388 5398
5462 5454 5446 5438 5430 5420 5409 5398 5385 5376 5387 5401 5388 5372 5355 5338 5324 5313 5306 5304 5304 5304 5304 5306 5308 5310 5313 5316 5320 5324 5328 5332 5336 5342 5349 5357 5366 5374
5447 5439 5430 5422 5412 5402 5390 5379 5365 5350 5345 5361 5357 5345 5331 5319 5309 5297 5288 5285 5286 5287 5287 5288 5290 5292 5296 5299 5303 5307 5311 5315 5320 5325 5331 5338 5346 5355
5433 5424 5414 5405 5393 5381 5369 5357 5344 5329 5316 5318 5328 5321 5311 5301 5294 5287 5279 5274 5272 5273 5274 5276 5278 5281 5284 5287 5290 5294 5298 5302 5307 5311 5317 5324 5331 5338
5417 5407 5396 5385 5374 5361 5347 5335 5322 5311 5297 5288 5295 5296 5293 5285 5279 5276 5271 5267 5265 5265 5266 5267 5269 5272 5276 5280 5283 5287 5290 5294 5298 5302 5305 5310 5316 5323
5401 5389 5376 5362 5349 5337 5326 5313 5300 5290 5281 5274 5275 5277 5276 5271 5264 5264 5267 5264 5263 5261 5262 5263 5265 5268 5271 5274 5278 5281 5284 5287 5290 5294 5297 5301 5306 5312
5385 5370 5356 5341 5327 5312 5299 5289 5278 5271 5265 5261 5262 5262 5262 5259 5256 5256 5259 5263 5264 5259 5262 5263 5263 5265 5267 5269 5272 5276 5280 5283 5286 5289 5292 5295 5299 5304
5366 5352 5336 5322 5307 5295 5281 5271 5263 5256 5252 5249 5250 5249 5251 5250 5251 5252 5254 5258 5266 5261 5259 5265 5261 5266 5268 5269 5273 5276 5280 5283 5285 5287 5288 5290 5293 5297
5343 5328 5316 5301 5286 5275 5269 5263 5255 5248 5243 5240 5241 5242 5243 5246 5247 5250 5251 5252 5256 5259 5258 5266 5266 5268 5270 5272 5276 5279 5282 5284 5285 5286 5286 5287 5288 5291
5322 5305 5292 5282 5271 5263 5260 5254 5249 5243 5239 5237 5237 5239 5242 5243 5244 5246 5248 5252 5257 5257 5256 5262 5268 5270 5274 5276 5278 5281 5284 5286 5287 5287 5286 5286 5286 5287
5306 5288 5274 5266 5260 5254 5249 5246 5244 5241 5239 5238 5238 5240 5242 5243 5243 5245 5248 5249 5256 5261 5258 5259 5268 5273 5278 5283 5286 5287 5289 5289 5290 5289 5289 5287 5286 5285
5297 5280 5265 5255 5251 5247 5243 5240 5238 5239 5240 5241 5240 5241 5242 5243 5244 5242 5242 5246 5252 5260 5264 5261 5266 5269 5284 5292 5292 5290 5291 5292 5293 5294 5293 5292 5290 5287
5280 5269 5258 5250 5246 5242 5239 5234 5235 5239 5239 5238 5241 5244 5246 5246 5246 5245 5244 5244 5250 5257 5263 5262 5266 5269 5272 5286 5297 5299 5298 5298 5299 5300 5300 5300 5299 5297
5263 5255 5249 5245 5241 5238 5234 5234 5236 5237 5235 5237 5240 5244 5246 5247 5249 5249 5250 5251 5253 5257 5263 5264 5268 5273 5277 5284 5294 5305 5307 5307 5308 5311 5312 5312 5312 5313
5252 5247 5243 5239 5236 5233 5232 5234 5235 5234 5235 5237 5239 5242 5244 5247 5250 5254 5257 5259 5263 5266 5269 5271 5273 5277 5280 5284 5292 5303 5310 5320 5323 5325 5327 5327 5328 5330
5247 5242 5237 5233 5231 5231 5232 5233 5233 5233 5234 5235 5237 5240 5244 5248 5251 5254 5259 5264 5269 5276 5278 5279 5281 5283 5288 5292 5297 5306 5316 5324 5335 5341 5343 5345 5347 5350
5243 5237 5234 5232 5231 5231 5232 5233 5234 5234 5234 5235 5236 5239 5243 5247 5251 5255 5258 5263 5267 5274 5282 5287 5290 5293 5296 5299 5306 5317 5328 5339 5347 5353 5358 5361 5364 5368
5236 5231 5229 5228 5228 5230 5231 5233 5234 5234 5234 5234 5236 5238 5241 5244 5249 5255 5259 5263 5267 5273 5278 5283 5289 5296 5303 5311 5313 5321 5334 5343 5352 5360 5366 5372 5377 5382
5229 5227 5226 5227 5228 5229 5230 5231 5233 5234 5233 5234 5236 5238 5240 5244 5248 5253 5259 5263 5268 5272 5276 5280 5284 5289 5296 5305 5317 5323 5332 5342 5351 5360 5367 5375 5382 5390
5225 5225 5226 5227 5228 5229 5230 5231 5232 5234 5235 5236 5237 5239 5241 5244 5248 5254 5259 5262 5267 5271 5275 5279 5283 5287 5292 5298 5307 5318 5330 5339 5348 5355 5363 5371 5380 5389
5225 5225 5226 5227 5229 5230 5231 5231 5232 5234 5236 5237 5239 5241 5244 5246 5250 5255 5259 5264 5266 5267 5271 5276 5279 5287 5293 5302 5310 5320 5327 5334 5341 5350 5357 5366 5375 5382
5225 5226 5228 5229 5230 5231 5232 5233 5234 5236 5238 5240 5241 5244 5246 5248 5252 5256 5261 5263 5264 5265 5267 5271 5277 5285 5292 5299 5307 5315 5323 5329 5336 5344 5351 5358 5365 5370
5226 5228 5230 5232 5233 5234 5234 5236 5237 5239 5241 5242 5244 5246 5249 5252 5255 5259 5262 5263 5263 5264 5265 5268 5273 5280 5287 5293 5301 5309 5317 5323 5329 5336 5340 5344 5352 5358